Starlink 31164

operational
NORAD ID: 58733 Int'l Des: 2024-005 Owner: SPXS Country: US Constellation: starlink
LEOCIRCULAR

About Starlink 31164

Description loading...

Live Position

Loading 3D Globe...

Upcoming Passes

Altitude History

Altitude vs Time

uPlot chart will show altitude changes over time

Two-Line Element Set

1 58733U 24005F 25256.83855803 .00000603 00000-0 59680-4 0 9998
2 58733 43.0043 103.0068 0001166 266.1786 93.8923 15.02537850 93800
Epoch: Sep 13, 2025 • Age: 39 hours

Current Status

Altitude 560.2 km
Velocity 7.59 km/s
Sub-Earth Point 29.55°N, 77.21°E
Launch Date Jan 7, 2024
Age 1.6 years
Type internet

Technical Details

Classification Payload
Mass 730.00 kg
Dry Mass 700.00 kg
Total Mass 730.00 kg
Length 0.30 m
Diameter 4.10 m
Span 29.00 m
Shape Box + pan
Manufacturer SPXS
Bus Type Starlink V2M
Phase Status In Orbit
Owner/State SPXS/US

Large Constellations

Loading constellations...